Location: Lac de la Montagne noire
(46.1952°N, 74.2701°W)
Time: 19:31:57
(UTC-05:00)

Envisat - Visible Passes

Search period start: 17 November 2019 00:00
Search period end: 27 November 2019 00:00
Orbit: 764 x 766 km, 98.1° (Epoch: 17 November)

Date Brightness Start Highest point End Pass type
(mag) Time Alt. Az. Time Alt. Az. Time Alt. Az.
17 Nov 6.0 05:37:29 10° NE 05:40:43 17° E 05:43:57 10° SE visible
17 Nov 3.8 16:54:10 10° ESE 16:58:30 29° ENE 17:02:51 10° N visible
17 Nov 4.4 18:32:38 10° SSW 18:37:22 40° W 18:42:09 10° NNW visible
18 Nov 3.0 17:55:25 10° SSE 18:00:30 84° WSW 18:05:37 10° NNW visible
18 Nov 6.2 19:38:57 10° WSW 19:40:18 11° W 19:41:39 10° WNW visible
19 Nov 5.3 06:02:07 10° NE 06:06:30 28° E 06:10:49 10° SSE visible
19 Nov 3.2 17:18:58 10° SE 17:23:49 47° ENE 17:28:41 10° N visible
19 Nov 5.3 18:59:01 10° SW 19:03:04 24° W 19:07:09 10° NW visible
20 Nov 6.2 05:26:53 10° ENE 05:29:18 13° E 05:31:43 10° ESE visible
20 Nov 3.9 18:21:09 10° S 18:26:03 49° W 18:31:00 10° NNW visible
21 Nov 4.3 06:27:14 10° NNE 06:32:09 47° E 06:37:01 10° S visible
21 Nov 2.9 17:44:10 10° SSE 17:49:14 79° ENE 17:54:20 10° N visible
21 Nov 6.0 19:26:15 10° WSW 19:28:52 14° W 19:31:31 10° NW visible
22 Nov 5.7 05:51:08 10° NE 05:55:07 23° E 05:59:04 10° SE visible
22 Nov 3.4 17:07:56 10° SE 17:12:36 38° ENE 17:17:18 10° N visible
22 Nov 4.9 18:47:18 10° SSW 18:51:42 29° W 18:56:08 10° NW visible
23 Nov 6.5 05:17:06 10° ENE 05:17:52 10° E 05:18:38 10° E visible
23 Nov 3.5 18:09:43 10° S 18:14:44 62° W 18:19:48 10° NNW visible
24 Nov 4.7 06:16:05 10° NNE 06:20:49 38° E 06:25:31 10° SSE visible
24 Nov 2.9 17:32:58 10° SSE 17:37:59 64° ENE 17:43:01 10° N visible
24 Nov 5.7 19:14:06 10° SW 19:17:27 18° W 19:20:50 10° NW visible
25 Nov 5.9 05:40:14 10° NE 05:43:43 18° E 05:47:11 10° SE visible
25 Nov 3.7 16:56:58 10° SE 17:01:25 32° ENE 17:05:52 10° N visible
25 Nov 4.5 18:35:41 10° SSW 18:40:21 36° W 18:45:03 10° NNW visible
26 Nov 3.1 17:58:22 10° S 18:03:27 77° WSW 18:08:34 10° NNW visible
